EA2CW-13 Weather Reports


time (UTC)temp
C
wind
direction
speed
KPH
gust
KPH
rain 1hr
cm
rain 24hr
cm
rain mn
cm
humidity
%
barometer
mb
20260510174223 28 0.0 0.0 0.00 0.00 0.00 39 1045.0
20260510172647 29 0.0 0.0 0.00 0.00 0.00 39 1045.0
20260510171111 29 0.0 0.0 0.00 0.00 0.00 40 1044.8
20260510165535 28 0.0 0.0 0.00 0.00 0.00 43 1045.0
20260510163959 27 0.0 0.0 0.00 0.00 0.00 48 1045.0
20260510162423 21 0.0 0.0 0.00 0.00 0.00 47 1044.9
20260510160847 24 0.0 0.0 0.00 0.00 0.00 44 1044.6
20260510155311 25 0.0 0.0 0.00 0.00 0.00 45 1044.8
20260510153735 24 0.0 0.0 0.00 0.00 0.00 45 1044.9
20260510152159 22 0.0 0.0 0.00 0.00 0.00 51 1045.0
20260510150623 23 0.0 0.0 0.00 0.00 0.00 52 1045.2
20260510145047 22 0.0 0.0 0.00 0.00 0.00 56 1045.3
20260510143511 22 0.0 0.0 0.00 0.00 0.00 65 1045.7
20260510141935 22 0.0 0.0 0.00 0.00 0.00 76 1046.3
20260510140359 18 0.0 0.0 0.00 0.00 0.00 82 1046.5
20260510134823 18 0.0 0.0 0.00 0.00 0.00 94 1046.7
20260510133247 17 0.0 0.0 0.00 0.00 0.00 97 1046.3
20260510131711 16 0.0 0.0 0.00 0.00 0.00 96 1047.5
20260510130136 15 0.0 0.0 0.00 0.00 0.00 95 1047.7
20260510124600 13 0.0 0.0 0.00 0.00 0.00 88 1047.7
20260510123024 21 0.0 0.0 0.00 0.00 0.00 42 1045.8
20260510121448 22 0.0 0.0 0.00 0.00 0.00 35 1045.0
20260510115912 25 0.0 0.0 0.00 0.00 0.00 34 1045.2
20260510114336 25 0.0 0.0 0.00 0.00 0.00 34 1045.2
20260510112800 26 0.0 0.0 0.00 0.00 0.00 33 1045.2
20260510111224 25 0.0 0.0 0.00 0.00 0.00 35 1045.2
20260510105648 23 0.0 0.0 0.00 0.00 0.00 36 1045.4
20260510104112 26 0.0 0.0 0.00 0.00 0.00 37 1045.6
20260510102536 22 0.0 0.0 0.00 0.00 0.00 41 1045.9
20260510101000 21 0.0 0.0 0.00 0.00 0.00 43 1046.0
20260510095424 20 0.0 0.0 0.00 0.00 0.00 43 1046.1
20260510093848 20 0.0 0.0 0.00 0.00 0.00 43 1046.1
20260510092312 21 0.0 0.0 0.00 0.00 0.00 41 1046.2
20260510090736 21 0.0 0.0 0.00 0.00 0.00 44 1046.4
20260510085200 21 0.0 0.0 0.00 0.00 0.00 45 1046.5
20260510083624 21 0.0 0.0 0.00 0.00 0.00 46 1046.6
20260510082048 19 0.0 0.0 0.00 0.00 0.00 47 1046.7
20260510080512 20 0.0 0.0 0.00 0.00 0.00 46 1046.6
20260510074936 20 0.0 0.0 0.00 0.00 0.00 47 1046.7
20260510073400 20 0.0 0.0 0.00 0.00 0.00 48 1046.4
20260510071824 19 0.0 0.0 0.00 0.00 0.00 50 1046.2
20260510070248 18 0.0 0.0 0.00 0.00 0.00 52 1046.2
20260510064712 17 0.0 0.0 0.00 0.00 0.00 56 1046.0
20260510063136 16 0.0 0.0 0.00 0.00 0.00 58 1045.8
20260510061600 16 0.0 0.0 0.00 0.00 0.00 58 1045.8
20260510060024 16 0.0 0.0 0.00 0.00 0.00 57 1045.6
20260510054449 16 0.0 0.0 0.00 0.00 0.00 59 1045.5
20260510052913 16 0.0 0.0 0.00 0.00 0.00 60 1045.2
20260510051337 17 0.0 0.0 0.00 0.00 0.00 63 1045.2
20260510045801 16 0.0 0.0 0.00 0.00 0.00 69 1045.2
20260510044225 16 0.0 0.0 0.00 0.00 0.00 71 1045.1
20260510042649 16 0.0 0.0 0.00 0.00 0.00 70 1044.9
20260510041113 16 0.0 0.0 0.00 0.00 0.00 69 1044.9
20260510035537 16 0.0 0.0 0.00 0.00 0.00 69 1045.0
20260510034001 16 0.0 0.0 0.00 0.00 0.00 69 1045.0
20260510032425 16 0.0 0.0 0.00 0.00 0.00 70 1044.7
20260510030849 16 0.0 0.0 0.00 0.00 0.00 70 1044.6
20260510025313 16 0.0 0.0 0.00 0.00 0.00 70 1044.5
20260510023737 16 0.0 0.0 0.00 0.00 0.00 70 1044.7
20260510022201 16 0.0 0.0 0.00 0.00 0.00 70 1044.9
20260510020625 17 0.0 0.0 0.00 0.00 0.00 71 1044.8
20260510015049 17 0.0 0.0 0.00 0.00 0.00 73 1044.6
20260510013513 17 0.0 0.0 0.00 0.00 0.00 74 1044.7
20260510011937 16 0.0 0.0 0.00 0.00 0.00 77 1044.8
20260510010401 16 0.0 0.0 0.00 0.00 0.00 80 1045.1
20260510004825 16 0.0 0.0 0.00 0.00 0.00 83 1044.9
20260510003249 16 0.0 0.0 0.00 0.00 0.00 86 1045.1
20260510001713 16 0.0 0.0 0.00 0.00 0.00 87 1045.1
20260510000137 16 0.0 0.0 0.00 0.00 0.00 88 1045.2
20260509234601 16 0.0 0.0 0.00 0.00 0.00 88 1045.4
20260509233025 16 0.0 0.0 0.00 0.00 0.00 88 1045.3
20260509231449 16 0.0 0.0 0.00 0.00 0.00 89 1045.4
20260509225914 16 0.0 0.0 0.00 0.00 0.00 89 1045.3
20260509224338 16 0.0 0.0 0.00 0.00 0.00 89 1045.2
20260509222802 16 0.0 0.0 0.00 0.00 0.00 88 1045.2
20260509221226 16 0.0 0.0 0.00 0.00 0.00 87 1045.4
20260509215650 16 0.0 0.0 0.00 0.00 0.00 86 1045.3
20260509214114 17 0.0 0.0 0.00 0.00 0.00 85 1045.2
20260509212538 17 0.0 0.0 0.00 0.00 0.00 84 1045.1
20260509211002 16 0.0 0.0 0.00 0.00 0.00 83 1045.0
20260509205426 17 0.0 0.0 0.00 0.00 0.00 81 1044.9
20260509203850 17 0.0 0.0 0.00 0.00 0.00 80 1044.9
20260509202314 17 0.0 0.0 0.00 0.00 0.00 79 1044.9
20260509200738 17 0.0 0.0 0.00 0.00 0.00 78 1044.6
20260509195202 17 0.0 0.0 0.00 0.00 0.00 76 1044.3
20260509193626 17 0.0 0.0 0.00 0.00 0.00 74 1044.2
20260509192050 18 0.0 0.0 0.00 0.00 0.00 72 1044.1
20260509190514 18 0.0 0.0 0.00 0.00 0.00 70 1044.1
20260509184938 19 0.0 0.0 0.00 0.00 0.00 69 1044.1
20260509183402 19 0.0 0.0 0.00 0.00 0.00 68 1044.0
20260509181826 19 0.0 0.0 0.00 0.00 0.00 67 1044.2
20260509180250 19 0.0 0.0 0.00 0.00 0.00 67 1044.2